Tracking 28081 objects as of 26-Sep-2023
HD Live streaming from Space Station
objects crossing your sky now

LES 6

Track LES 6 now!
LES 6 is classified as:


NORAD ID: 3431
Int'l Code: 1968-081D
Perigee: 35,749.0 km
Apogee: 35,800.6 km
Inclination: 1.7 °
Period: 1,435.1 minutes
Semi major axis: 42145 km
RCS: 3.1622 m2 (large)
Launch date: September 26, 1968
Source: United States (US)
Launch site: AIR FORCE EASTERN TEST RANGE (AFETR)
Your satellite tracking list
Your tracking list is empty




NASA's NSSDC Master Catalog

Two Line Element Set (TLE):
1 03431U 68081D   23268.59385671  .00000030  00000-0  00000-0 0  9992
2 03431   1.7393 313.9811 0006122  13.4649 122.5411  1.00339359110809
Source of the keplerian elements: AFSPC